When you browse on this site, cookies collect data to enhance your experience and personalize the content and advertising you see.
Visit our Privacy Policy to learn more. By continuing to use the site, you agree to this use of cookies and data.
  • In Sweden
  • List of Countries
  • For 7 days
  • Water Temperature
  • Weather Map
  • Weather Widgets
  • user-avatar
    Login

    Hourly Weather Carquefou

    Today, 8 December, Sunday

    Time Temperature Precipitation Wind Pressure Humidity
    00:00 +10°C° 0 mm 5 mps 761 mmHg 93%
    01:00 +10°C° 0 mm 5 mps 760 mmHg 93%
    02:00 +11°C° 0 mm 6 mps 760 mmHg 93%
    03:00 +11°C° 0 mm 7 mps 759 mmHg 93%
    04:00 +12°C° 0.5 mm 7 mps 758 mmHg 93%
    05:00 +12°C° 0.5 mm 8 mps 758 mmHg 94%
    06:00 +12°C° 0 mm 7 mps 758 mmHg 92%
    07:00 +12°C° 1.1 mm 7 mps 758 mmHg 93%
    08:00 +12°C° 1.1 mm 7 mps 758 mmHg 94%
    09:00 +12°C° 1.1 mm 7 mps 758 mmHg 95%
    10:00 +13°C° 0 mm 6 mps 758 mmHg 89%
    11:00 +13°C° 0 mm 6 mps 758 mmHg 82%
    12:00 +11°C° 0 mm 6 mps 758 mmHg 74%
    13:00 +11°C° 0 mm 6 mps 758 mmHg 74%
    14:00 +10°C° 0 mm 6 mps 758 mmHg 74%
    15:00 +10°C° 0 mm 6 mps 758 mmHg 75%
    16:00 +10°C° 0 mm 7 mps 758 mmHg 75%
    17:00 +10°C° 0 mm 8 mps 758 mmHg 75%
    18:00 +10°C° 0 mm 8 mps 759 mmHg 75%
    19:00 +9°C° 0.4 mm 8 mps 759 mmHg 76%
    20:00 +9°C° 0.4 mm 8 mps 759 mmHg 76%
    21:00 +9°C° 0.4 mm 7 mps 759 mmHg 77%
    22:00 +7°C° 0.2 mm 8 mps 758 mmHg 76%
    23:00 +7°C° 0.2 mm 8 mps 758 mmHg 76%

    Tomorrow, 9 December, Monday

    Time Temperature Precipitation Wind Pressure Humidity
    00:00 +7°C° 0.2 mm 9 mps 758 mmHg 75%
    01:00 +7°C° 0.1 mm 9 mps 758 mmHg 75%
    02:00 +7°C° 0.1 mm 9 mps 757 mmHg 75%
    03:00 +7°C° 0.1 mm 10 mps 757 mmHg 74%
    04:00 +7°C° 0.1 mm 9 mps 758 mmHg 74%
    05:00 +7°C° 0.1 mm 9 mps 758 mmHg 73%
    06:00 +7°C° 0.1 mm 9 mps 759 mmHg 73%
    07:00 +7°C° 0 mm 9 mps 759 mmHg 73%
    08:00 +7°C° 0 mm 9 mps 760 mmHg 73%
    09:00 +7°C° 0 mm 9 mps 761 mmHg 72%
    10:00 +8°C° 0 mm 9 mps 762 mmHg 69%
    11:00 +8°C° 0 mm 9 mps 763 mmHg 66%
    12:00 +10°C° 0 mm 9 mps 764 mmHg 62%
    13:00 +10°C° 0 mm 8 mps 764 mmHg 63%
    14:00 +9°C° 0 mm 7 mps 765 mmHg 64%
    15:00 +9°C° 0 mm 5 mps 765 mmHg 66%
    16:00 +8°C° 0 mm 5 mps 766 mmHg 69%
    17:00 +7°C° 0 mm 4 mps 767 mmHg 73%
    18:00 +7°C° 0 mm 3 mps 768 mmHg 77%
    19:00 +5°C° 0 mm 3 mps 769 mmHg 79%
    20:00 +6°C° 0 mm 2 mps 769 mmHg 82%
    21:00 +5°C° 0 mm 2 mps 770 mmHg 85%
    22:00 +5°C° 0 mm 2 mps 770 mmHg 85%
    23:00 +6°C° 0 mm 1 mps 770 mmHg 86%

    Day after tomorrow, 10 December, Tuesday

    Time Temperature Precipitation Wind Pressure Humidity
    00:00 +5°C° 0 mm 1 mps 771 mmHg 86%
    01:00 +5°C° 0 mm 1 mps 770 mmHg 86%
    02:00 +4°C° 0 mm 2 mps 770 mmHg 86%
    03:00 +4°C° 0 mm 2 mps 770 mmHg 86%
    04:00 +4°C° 0 mm 2 mps 769 mmHg 86%
    05:00 +3°C° 0 mm 3 mps 769 mmHg 86%
    06:00 +3°C° 0 mm 3 mps 769 mmHg 85%
    07:00 +3°C° 0 mm 4 mps 769 mmHg 84%
    08:00 +3°C° 0 mm 5 mps 768 mmHg 83%
    09:00 +3°C° 0 mm 5 mps 768 mmHg 83%
    10:00 +5°C° 0 mm 6 mps 767 mmHg 81%
    11:00 +8°C° 0 mm 6 mps 767 mmHg 78%
    12:00 +9°C° 0 mm 6 mps 766 mmHg 76%
    13:00 +9°C° 0 mm 6 mps 765 mmHg 77%
    14:00 +9°C° 0 mm 6 mps 764 mmHg 78%
    15:00 +9°C° 0 mm 6 mps 763 mmHg 78%
    16:00 +9°C° 0 mm 7 mps 763 mmHg 79%
    17:00 +9°C° 0 mm 7 mps 762 mmHg 80%
    18:00 +9°C° 0 mm 7 mps 762 mmHg 81%
    19:00 +10°C° 0.2 mm 7 mps 761 mmHg 82%
    20:00 +10°C° 0.2 mm 7 mps 761 mmHg 83%
    21:00 +10°C° 0.2 mm 7 mps 760 mmHg 84%
    22:00 +10°C° 0.2 mm 7 mps 760 mmHg 87%
    23:00 +10°C° 0.2 mm 7 mps 760 mmHg 89%

    11 December, Wednesday

    Time Temperature Precipitation Wind Pressure Humidity
    00:00 +10°C° 0.2 mm 7 mps 759 mmHg 91%
    01:00 +9°C° 0.3 mm 6 mps 759 mmHg 92%
    02:00 +10°C° 0.3 mm 4 mps 758 mmHg 93%
    03:00 +9°C° 0.3 mm 3 mps 758 mmHg 93%
    04:00 +7°C° 0.9 mm 4 mps 758 mmHg 92%
    05:00 +7°C° 0.9 mm 4 mps 758 mmHg 90%
    06:00 +6°C° 0.9 mm 5 mps 758 mmHg 89%
    07:00 +6°C° 0 mm 5 mps 758 mmHg 86%
    08:00 +6°C° 0 mm 4 mps 759 mmHg 84%
    09:00 +6°C° 0 mm 4 mps 759 mmHg 81%
    10:00 +7°C° 0.1 mm 6 mps 759 mmHg 77%
    11:00 +8°C° 0.1 mm 7 mps 759 mmHg 73%
    12:00 +9°C° 0.1 mm 8 mps 759 mmHg 69%
    13:00 +7°C° 0.4 mm 9 mps 758 mmHg 73%
    14:00 +7°C° 0.4 mm 10 mps 757 mmHg 76%
    15:00 +6°C° 0.4 mm 11 mps 757 mmHg 80%
    16:00 +6°C° 0.3 mm 10 mps 757 mmHg 79%
    17:00 +5°C° 0.3 mm 8 mps 757 mmHg 78%
    18:00 +4°C° 0.3 mm 7 mps 757 mmHg 77%
    19:00 +4°C° 0 mm 7 mps 758 mmHg 77%
    20:00 +4°C° 0 mm 6 mps 758 mmHg 76%
    21:00 +3°C° 0 mm 6 mps 759 mmHg 76%
    22:00 +3°C° 0 mm 5 mps 759 mmHg 76%
    23:00 +3°C° 0 mm 5 mps 759 mmHg 77%

    12 December, Thursday

    Time Temperature Precipitation Wind Pressure Humidity
    00:00 +3°C° 0 mm 5 mps 760 mmHg 77%
    01:00 +3°C° 0 mm 5 mps 760 mmHg 78%
    02:00 +4°C° 0 mm 4 mps 760 mmHg 78%
    03:00 +4°C° 0 mm 4 mps 760 mmHg 79%
    04:00 +4°C° 0 mm 3 mps 760 mmHg 80%
    05:00 +4°C° 0 mm 3 mps 760 mmHg 81%
    06:00 +4°C° 0 mm 3 mps 760 mmHg 82%
    07:00 +5°C° 0 mm 3 mps 759 mmHg 83%
    08:00 +6°C° 0 mm 4 mps 758 mmHg 84%
    09:00 +7°C° 0 mm 5 mps 758 mmHg 85%
    10:00 +7°C° 0.5 mm 6 mps 757 mmHg 86%
    11:00 +8°C° 0.5 mm 7 mps 756 mmHg 88%
    12:00 +9°C° 0.5 mm 8 mps 755 mmHg 89%
    13:00 +8°C° 1.1 mm 9 mps 753 mmHg 90%
    14:00 +8°C° 1.1 mm 10 mps 752 mmHg 90%
    15:00 +9°C° 1.1 mm 11 mps 750 mmHg 91%
    16:00 +9°C° 1.1 mm 11 mps 750 mmHg 90%
    17:00 +11°C° 1.1 mm 11 mps 749 mmHg 89%
    18:00 +12°C° 1.1 mm 11 mps 748 mmHg 89%
    19:00 +12°C° 0.5 mm 12 mps 748 mmHg 88%
    20:00 +12°C° 0.5 mm 12 mps 748 mmHg 88%
    21:00 +12°C° 0.5 mm 12 mps 748 mmHg 87%
    22:00 +12°C° 0.8 mm 11 mps 748 mmHg 88%
    23:00 +12°C° 0.8 mm 11 mps 748 mmHg 88%

    13 December, Friday

    Time Temperature Precipitation Wind Pressure Humidity
    00:00 +12°C° 0.8 mm 10 mps 748 mmHg 89%
    01:00 +11°C° 0.6 mm 9 mps 748 mmHg 88%
    02:00 +11°C° 0.6 mm 8 mps 748 mmHg 88%
    03:00 +10°C° 0.6 mm 7 mps 748 mmHg 87%
    04:00 +10°C° 0.2 mm 8 mps 749 mmHg 85%
    05:00 +11°C° 0.2 mm 8 mps 749 mmHg 83%
    06:00 +11°C° 0.2 mm 9 mps 749 mmHg 82%
    07:00 +11°C° 0.3 mm 8 mps 750 mmHg 83%
    08:00 +11°C° 0.3 mm 7 mps 750 mmHg 84%
    09:00 +11°C° 0.3 mm 7 mps 751 mmHg 85%
    10:00 +11°C° 0.3 mm 7 mps 751 mmHg 87%
    11:00 +11°C° 0.3 mm 7 mps 751 mmHg 88%
    12:00 +11°C° 0.3 mm 7 mps 752 mmHg 89%
    13:00 +11°C° 0.2 mm 8 mps 751 mmHg 89%
    14:00 +12°C° 0.2 mm 10 mps 751 mmHg 89%
    15:00 +12°C° 0.2 mm 11 mps 751 mmHg 89%
    16:00 +12°C° 0.1 mm 11 mps 751 mmHg 88%
    17:00 +12°C° 0.1 mm 11 mps 752 mmHg 88%
    18:00 +12°C° 0.1 mm 11 mps 752 mmHg 87%
    19:00 +12°C° 0.2 mm 11 mps 752 mmHg 88%
    20:00 +12°C° 0.2 mm 10 mps 752 mmHg 89%
    21:00 +12°C° 0.2 mm 10 mps 753 mmHg 90%
    22:00 +12°C° 0.5 mm 10 mps 753 mmHg 90%
    23:00 +12°C° 0.5 mm 11 mps 753 mmHg 90%
    Show more